Location: Newark
(23.1300°N, 73.6109°E)
Time: 06:14:01
(UTC+00:00)

Hubble Space Telescope - Pass Details

Date: 24 July 2021
Orbit: 535 x 539 km, 28.5° (Epoch: 19 September)

Event Time Altitude Azimuth Distance (km) Brightness Sun altitude
Rises 15:54:19 0° 275° (W) 2,665 5.2 -25.5°
Reaches altitude 10° 15:56:40 10° 282° (WNW) 1,775 4.2 -25.9°
Enters shadow 16:00:19 41° 344° (NNW) 782 1.9 -26.6°
